Regional Weather Roundup
Issued by NWS

Home | Current Version | Previous Version | Graphics & Text | Print | Product List | Glossary On
Versions: 1 2 3 4 5 6 7 8 9 10 11 12 13 14 15 16 17 18 19 20 21 22 23 24 25 26 27 28 29 30 31 32 33 34 35 36 37 38 39 40 41 42 43 44 45 46 47 48 49 50
000
ASUS43 KIND 260359
RWRIN

WEATHER ROUNDUP FOR INDIANA
NATIONAL WEATHER SERVICE INDIANAPOLIS IN
1100 PM EST SAT FEB 25 2017

NOTE: "FAIR" INDICATES FEW OR NO CLOUDS BELOW 12,000 FEET WITH NO
SIGNIFICANT WEATHER AND/OR OBSTRUCTIONS TO VISIBILITY.

* - STATION DOES NOT REPORT WEATHER SUCH AS PRECIPITATION OR FOG.

+ - STATION NOT QUALITY CONTROLLED BY THE NATIONAL WEATHER SERVICE.
    USE DATA WITH CAUTION...ESPECIALLY DEWPOINT AND RELATIVE
    HUMIDITY OBSERVATIONS.

INZ001>003-010>013-019-020-260500-
NORTHWEST INDIANA

CITY           SKY/WX    TMP DP  RH WIND       PRES   REMARKS
GARY /AIRPORT/ MOCLDY    27  14  59 W8        30.05R WCI  18
KNOX *+        CLOUDY    27  -4  26 NW9       30.03R WCI  17

$$

LMZ046-743>745-260500-
SOUTHERN LAKE MICHIGAN

STATION/POSITION TIME  TEMP    WIND        PRES    WAVE
                       AIR SEA DIR/SP/G            HT
                 (UTC) (F)     (DEG/KT/KT) (MB)    (FT)
BURNS HARBOR     0340   27     300/ 12/ 18 1017.3R
MICHIGAN CITY    0330   26     280/ 17/ 18   N/A

$$

INZ004-005-014>016-021>024-260500-
NORTH CENTRAL INDIANA

CITY           SKY/WX    TMP DP  RH WIND       PRES   REMARKS
GOSHEN         CLOUDY    26  15  63 W12       30.00R WCI  16
SOUTH BEND     CLOUDY    25  16  68 W8        30.01R WCI  16

$$

INZ006>009-017-018-025>027-260500-
NORTHEAST INDIANA

CITY           SKY/WX    TMP DP  RH WIND       PRES   REMARKS
ANGOLA *+      CLOUDY    23  19  86 W7        29.97S WCI  15
FORT WAYNE     FLURRIES  27  18  69 W13G21    30.00S WCI  16
KENDALLVILLE + FLURRIES  25  17  73 W8        29.98S WCI  16

$$

INZ028-029-035-036-043>045-051>053-260500-
WEST CENTRAL INDIANA

CITY           SKY/WX    TMP DP  RH WIND       PRES   REMARKS
LAFAYETTE      CLEAR     23  18  81 W6        30.07R WCI  16
TERRE HAUTE    CLEAR     28  13  53 W7        30.11R WCI  21

$$

INZ030>032-037>040-046>048-054>057-064-065-260500-
CENTRAL INDIANA

CITY           SKY/WX    TMP DP  RH WIND       PRES   REMARKS
GREENWOOD *+   CLEAR     29  17  60 W8        30.07R WCI  21
INDIANAPOLIS   PTCLDY    26  16  65 W10       30.06R WCI  16
-EAGLE CREEK   CLEAR     28  17  63 W10       30.05R WCI  19
KOKOMO +       CLOUDY    27  18  69 W16       30.04R WCI  15
MT COMFORT *+  CLEAR     25  18  74 W7        30.05R WCI  17
SHELBYVILLE    CLEAR     28  16  60 W7        30.05R WCI  21

$$

INZ033-034-041-042-049-050-058-059-260500-
EAST CENTRAL INDIANA

CITY           SKY/WX    TMP DP  RH WIND       PRES   REMARKS
MUNCIE         PTCLDY    28  17  63 W10       30.02R WCI  19

$$

INZ060-061-067>069-081>083-085>088-260500-
SOUTHWEST INDIANA

CITY           SKY/WX    TMP DP  RH WIND       PRES   REMARKS
EVANSVILLE     CLEAR     30  18  60 W3        30.15R
HUNTINGBURG *+ CLEAR     28  19  69 W3        30.13R

$$

INZ062-063-066-070>080-084-089>092-260500-
SOUTH CENTRAL AND SOUTHEAST INDIANA

CITY           SKY/WX    TMP DP  RH WIND       PRES   REMARKS
BLOOMINGTON    CLEAR     28  15  58 W7        30.08R WCI  21
MADISON *+     CLEAR     30  19  64 SW3       30.10S
SEYMOUR +      CLEAR     27  18  69 SW8       30.09R WCI  18

$$





USA.gov is the U.S. government's official web portal to all federal, state and local government web resources and services.